Location: Burbank
(38.7788°N, 114.0429°W)
Time: 02:40:27
(UTC+00:00)

Tiros 1 despin weight - Pass Details

Date: 19 May 2026
Orbit: 554 x 591 km, 48.2° (Epoch: 6 June)

Event Time Altitude Azimuth Distance (km) Brightness Sun altitude
Rises 12:05:09 0° 263° (W) 2,765 - -3.5°
Exits shadow 12:05:40 - 264° (W) 2,570 ? -3.4°
Reaches altitude 10° 12:07:34 10° 272° (W) 1,862 ? -3.1°
Maximum altitude 12:11:30 35° 340° (NNW) 910 ? -2.4°
Drops below altitude 10° 12:15:24 10° 47° (NE) 1,847 ? -1.7°
Sets 12:17:48 0° 57° (ENE) 2,739 ? -1.3°
